Other Surface Observations
Issued by NWS

Home | Current Version | Previous Version | Text Only | Print | Product List | Glossary On
Versions: 1 2 3 4 5 6 7 8 9 10 11 12 13 14 15 16 17 18 19 20 21 22 23 24 25 26 27 28 29 30 31 32 33 34 35 36 37 38 39 40 41 42 43 44 45 46 47 48 49 50
000
SXUS52 KTAE 020618
OSOTAE
OSOTAE
North Florida/South Alabama/Southwest Georgia Weather Roundup
National Weather Service Tallahassee Florida
200 AM EDT SUN AUG 02 2015

Note: "fair" indicates few or no clouds below 12,000 feet with no
significant weather and/or obstructions to visibility.

!FLZ017-115-028-034-025-020700
...North Florida...

CITY           SKY/WX    TMP DP  RH WIND       PRES   REMARKS
TALLAHASSEE    CLOUDY    79  77  94 SE8       29.83F
APALACHICOLA   PTCLDY    78  74  87 NW3       29.84F
PERRY          HVY RAIN  75  75 100 NE5       29.85F
CROSS CITY       N/A     77  76  96 VRB3      29.85F
JACKSONVILLE   CLOUDY    77  73  87 S5        29.90F
$$

!FLZ112-006-005-002-011-020700
...Florida Panhandle...

CITY           SKY/WX    TMP DP  RH WIND       PRES   REMARKS
MARIANNA       CLEAR     75  73  93 CALM      29.84F
BONIFAY        FAIR      77  75  93 NE3       29.86F
PANAMA CITY NW FAIR      79  76  90 CALM      29.84F
TYNDALL AFB    PTCLDY    79  76  89 NE5       29.84F
TYND DRONE APT FAIR      78  76  95 N5        29.84F
DE FUNIAK SPR  FAIR      78  74  86 N5        29.87F
EGLIN AFB      CLOUDY    76  74  92 N5        29.86S
DESTIN         PTCLDY    81  76  84 NE3       29.85S
HURLBURT       CLOUDY    78  73  86 N3        29.84S
CRESTVIEW      CLEAR     77  75  93 CALM      29.88F
PENSACOLA      CLEAR     78  70  76 NE3       29.86F
$$

!ALZ063-066-020700
...South Alabama...

CITY           SKY/WX    TMP DP  RH WIND       PRES   REMARKS
DOTHAN         CLEAR     75  72  90 E5        29.91F
OZARK CAIRNS   CLEAR     76  73  89 NW3       29.86F
FT RUCKER HELI CLEAR     76  72  87 N5        29.86F
RUCKER HELI 3  FAIR      75  72  89 N3        29.88F
RUCKER HELI 2  FAIR      74  74 100 N6        29.86F
FLORALA APT    CLEAR     77  72  84 N3        29.89F
ANDALUSIA      CLEAR     81  73  76 NE5       29.88F
TROY           CLEAR     76  74  93 NE3       29.90F
EUFALA         FAIR      76  74  93 CALM      29.88F
MOBILE         CLEAR     75  68  78 CALM      29.89F
$$

!GAZ120>161-020700
...Southwest and South Central Georgia...

CITY           SKY/WX    TMP DP  RH WIND       PRES   REMARKS
THOMASVILLE    CLOUDY    75  72  88 CALM      29.88R
BAINBRIDGE     PTCLDY    75  73  94 CALM      29.86R
MOODY AFB      CLOUDY    75  73  94 SE5       29.87S
VALDOSTA       CLOUDY    76  75  97 E5        29.88S
MOULTRIE       MOCLDY    73  72  94 CALM      29.88F
BLAKELY        CLEAR     75  73  94 CALM      29.88S
ALBANY         CLEAR     75  73  93 NE5       29.89F
TIFTON         CLOUDY    74  73  97 NE3       29.89S
FITZGERALD     CLOUDY    76  74  96 E6        29.92F
CORDELE        FAIR      77  75  93 E3        29.90F
AMERICUS       FAIR      73  73 100 CALM      29.91F
HOMERVILLE     MOCLDY    79  77  94 SE7       29.90S
$$

!GMZ750-755-770-775-020700
...Coastal and Buoy Obs...

STATION/POSITION TIME  TEMP    WIND        PRES    VSBY  WAVE
                       AIR SEA DIR/SP/G                  HT/PER
                 (UTC) (F)     (DEG/KT/KT) (MB)    (MI)  (FT/S)
KEATON BEACH     0600   81     180/ 17/ 18 1010.3F
CEDAR KEY        0600   78     210/ 22/ 26 1011.8F
C TOWER          0600   81      CALM  /  1 1010.4F
APALACHICOLA BUO 0550   82 85  240/ 19/ 23 1011.0F         7/ 7
PANAMA CITY BUOY 0550   78 86  220/ 16/ 19 1011.0F         4/ 7
MOBILE BUOY      0550   86 87  280/  8/ 10 1012.0R         1/ 6
ORANGE BCH AL BU 0550   86 86  330/ 10/ 12 1010.4F         1/ 9
$$



USA.gov is the U.S. government's official web portal to all federal, state and local government web resources and services.